Flag for Germany Weather past 2 weeks in Neu-Ulm, Bavaria, Germany

Now
25 °F

Cold.


Feels Like: 12 °F
Forecast: 4 / 28 °F
Wind: 15 mph from Northeast

Location: Laupheim Airport

Current Time: Dec 28, 2014 at 1:30:15 PM

Latest Report: Dec 28, 2014 at 12:20 PM


Visibility: 1 mi

Pressure: 29.89 "Hg

Humidity: 86%

Dew point: 21 °F

Location of Neu-UlmLocation

Historic Weather in Neu-Ulm — Graph

°F

Neu-Ulm temperature yesterday

Maximum temperature yesterday: 34 °F (at 2:20 PM)
Minimum temperature yesterday: 27 °F (at 8:20 AM)
Average temperature yesterday: 31 °F

Past Weeks' High & Low Weather Summary

 TemperatureHumidityPressure
High54 °F (Dec 23, 1:20 PM)100% (Dec 15, 3:20 AM)30.51 "Hg (Dec 15, 3:20 AM)
Low25 °F (Dec 28, 8:20 AM)41% (Dec 23, 1:20 PM)29.42 "Hg (Dec 27, 4:20 PM)
Average40 °F83%30.10 "Hg
* Reported Dec 13 12:20 PM — Dec 28 12:20 PM, Neu-Ulm, Weather by CustomWeather, © 2014

Note: Actual official high and low records may vary slightly from our data, if they occured in-between our weather recording intervals... More about our weather records

Advertising

Neu-Ulm weather history for previous 24 hours

 ConditionsComfort  
Time TempWeatherWind HumidityBarometerVisibility
12:20 PM
Dec 28
25 °FCold.15 mph86%29.89 "Hg1 mi
11:20 AM25 °FCold.17 mph86%29.86 "Hg2 mi
10:20 AM25 °FCold.14 mph86%29.80 "Hg2 mi
9:20 AM25 °FCold.14 mph86%29.74 "Hg3 mi
8:20 AM25 °FCold.14 mph93%29.68 "Hg1 mi
7:20 AM27 °FChilly.9 mph93%29.65 "Hg1 mi
6:20 AM28 °FChilly.9 mph93%29.59 "Hg2 mi
5:20 AM30 °FChilly.1 mph100%29.56 "Hg1 mi
4:20 AM30 °FChilly.1 mph100%29.53 "Hg1 mi
3:20 AM30 °FChilly.2 mph100%29.50 "Hg1 mi
2:20 AM32 °FChilly.6 mph93%29.47 "Hg2 mi
1:20 AM32 °FChilly.No wind100%29.47 "Hg4 mi
12:20 AM30 °FChilly.3 mph100%29.47 "Hg2 mi
11:20 PM
Dec 27
32 °FChilly.13 mph100%29.47 "Hg0 mi
10:20 PM34 °FChilly.10 mph93%29.45 "Hg5 mi
9:20 PM34 °FChilly.12 mph87%29.45 "Hg1 mi
8:20 PM34 °FChilly.13 mph87%29.42 "Hg5 mi
7:20 PM34 °FChilly.13 mph87%29.42 "Hg5 mi
6:20 PM34 °FChilly.15 mph87%29.42 "Hg5 mi
5:20 PM34 °FChilly.16 mph87%29.42 "Hg6 mi
4:20 PM34 °FChilly.15 mph93%29.42 "Hg6 mi
3:20 PM34 °FChilly.14 mph93%29.45 "Hg5 mi
2:20 PM34 °FChilly.14 mph93%29.47 "Hg5 mi
1:20 PM32 °FChilly.9 mph100%29.47 "Hg1 mi
Weather by CustomWeather, © 2014

See weather overviewHow to use our weather pages